This demonstration page uses our WeatherBlox Daily Observations layout. Learn more.

38.88101, -77.10428

Hourly Observations for July 8, 2020

Temp ( °F °C ) Dew Point ( °F °C ) Humidity (%) Winds ( mph kmh ) Pressure ( in mb ) Visibility ( mi km ) Precip ( " mm )
12:52 am 00:52 Clear 79 26.1 74 23.3 85 85 S 13 20 30.01 1016 10 16.0934 0 0
1:52 am 01:52 Mostly Clear 79 26.1 74 23.3 85 85 S 10 17 30 1016 10 16.0934 0 0
2:52 am 02:52 Mostly Clear 78 25.6 74 23.3 87 87 S 9 15 29.99 1016 10 16.0934 0 0
3:52 am 03:52 Mostly Clear 78 25.6 74 23.3 87 87 SSE 6 9 29.99 1016 10 16.0934 0 0
4:52 am 04:52 Mostly Clear 77 25 74 23.3 90 90 S 5 7 29.98 1015 10 16.0934 0 0
5:01 am 05:01 Partly Cloudy 77 25 74 23.3 90 90 S 3 6 29.99 1015 10 16.0934 0 0
5:52 am 05:52 Partly Cloudy 76 24.4 74 23.3 94 94 S 6 9 30 1016 10 16.0934 0 0
6:52 am 06:52 Mostly Sunny 77 25 73 22.8 88 88 S 8 13 30 1016 10 16.0934 0 0
7:52 am 07:52 Mostly Sunny 79 26.1 73 22.8 82 82 S 5 7 30.01 1016 10 16.0934 0 0
8:52 am 08:52 Mostly Sunny 80 26.7 73 22.8 79 79 SSE 7 11 30.01 1016 10 16.0934 0 0
9:52 am 09:52 Mostly Sunny 83 28.3 72 22.2 70 70 SE 6 9 30.01 1016 10 16.0934 0 0
10:52 am 10:52 Partly Cloudy 85 29.4 71 21.7 63 63 S 8 13 30.01 1016 10 16.0934 0 0
11:52 am 11:52 Partly Cloudy 87 30.6 72 22.2 61 61 S 8 13 30.01 1016 10 16.0934 0 0
12:52 pm 12:52 Partly Cloudy 88 31.1 70 21.1 55 55 SSW 8 13 30 1016 10 16.0934 0 0
1:52 pm 13:52 Mostly Sunny 90 32.2 69 20.6 50 50 SSW 9 15 29.97 1015 10 16.0934 0 0
2:52 pm 14:52 Mostly Sunny 90 32.2 64 17.8 42 42 S 8 13 29.96 1014 10 16.0934 0 0
3:52 pm 15:52 Partly Cloudy 91 32.8 66 18.9 44 44 S 10 17 29.94 1014 10 16.0934 0 0
4:52 pm 16:52 Partly Cloudy 91 32.8 69 20.6 49 49 S 10 17 29.92 1013 10 16.0934 0 0
5:52 pm 17:52 Partly Cloudy 89 31.7 70 21.1 53 53 SSE 9 15 29.92 1013 10 16.0934 0 0
6:52 pm 18:52 Partly Cloudy 87 30.6 65 18.3 48 48 SE 9 15 29.93 1013 10 16.0934 0 0
7:52 pm 19:52 Partly Cloudy 85 29.4 64 17.8 50 50 SE 7 11 29.93 1014 10 16.0934 0 0
8:52 pm 20:52 Partly Cloudy 82 27.8 70 21.1 67 67 SSE 6 9 29.95 1014 10 16.0934 0 0
9:52 pm 21:52 Partly Cloudy 81 27.2 72 22.2 74 74 SE 6 9 29.96 1014 10 16.0934 0 0
10:52 pm 22:52 Partly Cloudy 80 26.7 72 22.2 76 76 SE 5 7 29.96 1015 10 16.0934 0 0
11:52 pm 23:52 Partly Cloudy 79 26.1 72 22.2 79 79 S 9 15 29.95 1014 10 16.0934 0 0

Powered by AerisWeather